GW5248 Weather Reports


time (UTC)temp
C
wind
direction
speed
KPH
gust
KPH
rain 1hr
cm
rain 24hr
cm
rain mn
cm
humidity
%
barometer
mb
20260505041718 16 309 6.4 12.9 0.00 0.00 0.00 74 1012.0
20260505041219 16 313 9.7 14.5 0.00 0.00 0.00 75 1012.0
20260505040719 16 277 4.8 6.4 0.00 0.00 0.00 74 1013.0
20260505040218 16 298 6.4 17.7 0.00 0.00 0.00 75 1013.0
20260505035718 16 313 6.4 12.9 0.00 0.00 0.00 74 1013.0
20260505035218 16 319 8.0 14.5 0.00 0.00 0.00 74 1012.0
20260505034718 16 318 8.0 14.5 0.00 0.00 0.00 75 1013.0
20260505034219 16 311 6.4 12.9 0.00 0.00 0.00 75 1013.0
20260505033718 16 309 6.4 14.5 0.00 0.00 0.00 75 1012.0
20260505033218 16 281 4.8 12.9 0.00 0.00 0.00 75 1012.0
20260505032718 16 259 6.4 12.9 0.00 0.00 0.00 75 1012.0
20260505032218 16 253 9.7 16.1 0.00 0.00 0.00 75 1012.0
20260505031718 16 251 11.3 14.5 0.00 0.00 0.00 75 1012.0
20260505031218 16 264 8.0 11.3 0.00 0.00 0.00 75 1012.0
20260505030719 16 256 9.7 14.5 0.00 0.00 0.00 74 1012.0
20260505030218 16 259 9.7 14.5 0.00 0.00 0.00 74 1012.0
20260505025719 16 253 9.7 12.9 0.00 0.00 0.00 74 1012.0
20260505025218 16 259 9.7 11.3 0.00 0.00 0.00 74 1012.0
20260505024718 16 257 8.0 12.9 0.00 0.00 0.00 73 1012.0
20260505024220 16 256 8.0 11.3 0.00 0.00 0.00 73 1012.0
20260505023718 16 246 8.0 12.9 0.00 0.00 0.00 73 1012.0
20260505023219 16 255 9.7 14.5 0.00 0.00 0.00 72 1012.0
20260505022719 16 252 8.0 11.3 0.00 0.00 0.00 72 1012.0
20260505022220 16 258 9.7 14.5 0.00 0.00 0.00 71 1012.0
20260505021719 16 263 8.0 14.5 0.00 0.00 0.00 71 1012.0
20260505021218 16 261 9.7 12.9 0.00 0.00 0.00 71 1012.0
20260505020718 16 257 9.7 12.9 0.00 0.00 0.00 70 1012.0
20260505020218 16 257 8.0 12.9 0.00 0.00 0.00 69 1012.0
20260505015718 16 262 8.0 11.3 0.00 0.00 0.00 69 1012.0
20260505015219 16 255 8.0 12.9 0.00 0.00 0.00 68 1012.0
20260505014719 16 261 9.7 16.1 0.00 0.00 0.00 67 1012.0
20260505014219 16 257 9.7 12.9 0.00 0.00 0.00 68 1012.0
20260505013719 16 253 8.0 11.3 0.00 0.00 0.00 66 1012.0
20260505013218 16 256 8.0 14.5 0.00 0.00 0.00 67 1012.0
20260505012718 16 260 8.0 11.3 0.00 0.00 0.00 66 1012.0
20260505012219 16 256 8.0 9.7 0.00 0.00 0.00 66 1012.0
20260505011721 16 250 8.0 11.3 0.00 0.00 0.00 65 1012.0
20260505011218 17 243 8.0 14.5 0.00 0.00 0.00 64 1012.0
20260505010718 17 248 8.0 11.3 0.00 0.00 0.00 64 1012.0
20260505010218 17 249 8.0 11.3 0.00 0.00 0.00 63 1012.0
20260505005719 17 246 6.4 8.0 0.00 0.00 0.00 63 1012.0
20260505005219 17 263 11.3 16.1 0.00 0.00 0.00 61 1012.0
20260505004720 17 259 8.0 11.3 0.00 0.00 0.00 61 1012.0
20260505004218 17 247 4.8 8.0 0.00 0.00 0.00 62 1012.0
20260505003718 17 257 8.0 14.5 0.00 0.00 0.00 61 1012.0
20260505003218 17 249 8.0 12.9 0.00 0.00 0.00 61 1012.0
20260505002718 18 248 6.4 9.7 0.00 0.00 0.00 60 1012.0
20260505002218 18 238 6.4 8.0 0.00 0.00 0.00 60 1012.0
20260505001719 18 257 6.4 9.7 0.00 0.00 0.00 57 1012.0
20260505001218 19 262 11.3 16.1 0.00 0.00 0.00 56 1012.0
20260505000719 19 262 9.7 12.9 0.00 0.00 0.00 55 1012.0
20260505000219 19 262 9.7 14.5 0.00 0.00 0.00 55 1012.0
20260504235718 19 267 9.7 12.9 0.00 0.00 0.00 54 1012.0
20260504235219 20 257 6.4 11.3 0.00 0.00 0.00 54 1012.0
20260504234719 20 254 9.7 14.5 0.00 0.00 0.00 55 1012.0
20260504234218 20 261 8.0 12.9 0.00 0.00 0.00 54 1012.0
20260504233718 20 258 8.0 11.3 0.00 0.00 0.00 54 1012.0
20260504233218 20 261 9.7 14.5 0.00 0.00 0.00 54 1012.0
20260504232718 20 259 12.9 17.7 0.00 0.00 0.00 53 1011.0
20260504232220 21 259 9.7 17.7 0.00 0.00 0.00 52 1011.0
20260504231720 21 257 11.3 17.7 0.00 0.00 0.00 50 1011.0
20260504231220 22 256 9.7 16.1 0.00 0.00 0.00 39 1011.0
20260504230718 22 269 9.7 16.1 0.00 0.00 0.00 38 1011.0
20260504230219 22 306 11.3 17.7 0.00 0.00 0.00 37 1011.0
20260504225718 22 316 12.9 17.7 0.00 0.00 0.00 37 1011.0
20260504225218 22 300 9.7 14.5 0.00 0.00 0.00 37 1011.0
20260504224718 22 285 6.4 11.3 0.00 0.00 0.00 37 1011.0
20260504224218 22 312 11.3 24.1 0.00 0.00 0.00 37 1011.0
20260504223718 23 317 8.0 17.7 0.00 0.00 0.00 38 1011.0
20260504223218 23 282 6.4 11.3 0.00 0.00 0.00 38 1011.0
20260504222718 23 301 9.7 17.7 0.00 0.00 0.00 38 1011.0
20260504222219 23 307 6.4 11.3 0.00 0.00 0.00 38 1011.0
20260504221719 23 321 8.0 17.7 0.00 0.00 0.00 38 1011.0
20260504221218 23 318 8.0 12.9 0.00 0.00 0.00 38 1011.0
20260504220718 23 317 9.7 19.3 0.00 0.00 0.00 38 1011.0
20260504220218 23 311 8.0 16.1 0.00 0.00 0.00 38 1011.0
20260504215720 23 17 3.2 6.4 0.00 0.00 0.00 38 1011.0
20260504215218 23 307 11.3 14.5 0.00 0.00 0.00 37 1011.0
20260504214718 23 333 9.7 16.1 0.00 0.00 0.00 37 1011.0
20260504214219 23 339 9.7 14.5 0.00 0.00 0.00 37 1012.0
20260504213718 23 352 6.4 12.9 0.00 0.00 0.00 37 1011.0
20260504213218 23 331 6.4 11.3 0.00 0.00 0.00 37 1012.0
20260504212718 23 323 9.7 12.9 0.00 0.00 0.00 37 1011.0
20260504212218 23 316 16.1 24.1 0.00 0.00 0.00 37 1011.0
20260504211718 23 310 11.3 16.1 0.00 0.00 0.00 37 1012.0
20260504211219 23 309 8.0 14.5 0.00 0.00 0.00 38 1011.0
20260504210719 23 308 11.3 16.1 0.00 0.00 0.00 37 1012.0
20260504210219 23 275 8.0 14.5 0.00 0.00 0.00 38 1011.0
20260504205718 23 312 9.7 12.9 0.00 0.00 0.00 38 1011.0
20260504205218 23 313 6.4 12.9 0.00 0.00 0.00 38 1012.0
20260504204718 23 315 8.0 14.5 0.00 0.00 0.00 38 1012.0
20260504204219 23 314 6.4 11.3 0.00 0.00 0.00 37 1012.0
20260504203718 23 341 6.4 14.5 0.00 0.00 0.00 37 1012.0
20260504203219 23 312 8.0 17.7 0.00 0.00 0.00 38 1012.0
20260504202719 23 343 11.3 20.9 0.00 0.00 0.00 37 1012.0
20260504202219 23 307 9.7 14.5 0.00 0.00 0.00 38 1012.0
20260504201718 23 302 8.0 16.1 0.00 0.00 0.00 38 1012.0
20260504201218 23 314 8.0 11.3 0.00 0.00 0.00 38 1012.0
20260504200718 23 318 6.4 17.7 0.00 0.00 0.00 38 1012.0
20260504200227 23 311 9.7 12.9 0.00 0.00 0.00 38 1012.0
20260504195718 23 323 8.0 14.5 0.00 0.00 0.00 37 1012.0
20260504195218 23 313 8.0 12.9 0.00 0.00 0.00 38 1012.0
20260504194718 23 282 11.3 14.5 0.00 0.00 0.00 39 1012.0
20260504194220 23 333 4.8 9.7 0.00 0.00 0.00 37 1012.0
20260504193719 23 297 8.0 20.9 0.00 0.00 0.00 39 1012.0
20260504193218 23 319 6.4 12.9 0.00 0.00 0.00 39 1012.0
20260504192719 23 357 12.9 16.1 0.00 0.00 0.00 38 1012.0
20260504192218 23 355 12.9 16.1 0.00 0.00 0.00 37 1012.0
20260504191720 23 340 11.3 16.1 0.00 0.00 0.00 36 1012.0
20260504191218 23 4 11.3 16.1 0.00 0.00 0.00 36 1012.0
20260504190718 23 326 4.8 8.0 0.00 0.00 0.00 38 1012.0
20260504190219 23 352 14.5 20.9 0.00 0.00 0.00 36 1012.0
20260504185721 23 325 9.7 16.1 0.00 0.00 0.00 37 1012.0
20260504185219 23 341 6.4 9.7 0.00 0.00 0.00 37 1013.0
20260504184718 23 306 8.0 14.5 0.00 0.00 0.00 38 1013.0
20260504184219 23 316 8.0 12.9 0.00 0.00 0.00 37 1013.0
20260504183719 23 346 8.0 14.5 0.00 0.00 0.00 36 1013.0
20260504183220 22 8 11.3 17.7 0.00 0.00 0.00 37 1013.0
20260504182718 22 309 8.0 11.3 0.00 0.00 0.00 38 1013.0
20260504182218 23 315 6.4 14.5 0.00 0.00 0.00 36 1013.0
20260504181718 23 23 12.9 16.1 0.00 0.00 0.00 35 1013.0
20260504181218 23 16 12.9 17.7 0.00 0.00 0.00 36 1013.0
20260504180718 22 345 8.0 14.5 0.00 0.00 0.00 38 1013.0
20260504180218 22 341 9.7 17.7 0.00 0.00 0.00 36 1013.0
20260504175718 22 354 11.3 17.7 0.00 0.00 0.00 36 1013.0
20260504175219 22 336 6.4 11.3 0.00 0.00 0.00 38 1013.0
20260504174718 22 342 9.7 16.1 0.00 0.00 0.00 38 1013.0
20260504174219 22 307 12.9 22.5 0.00 0.00 0.00 38 1013.0
20260504173721 22 333 3.2 8.0 0.00 0.00 0.00 39 1013.0
20260504173219 22 28 12.9 22.5 0.00 0.00 0.00 37 1013.0
20260504172719 22 356 14.5 17.7 0.00 0.00 0.00 37 1013.0
20260504172219 22 342 12.9 19.3 0.00 0.00 0.00 38 1013.0
20260504171720 22 310 12.9 19.3 0.00 0.00 0.00 40 1014.0
20260504171218 22 316 14.5 22.5 0.00 0.00 0.00 39 1014.0
20260504170719 22 326 8.0 16.1 0.00 0.00 0.00 38 1014.0
20260504170219 22 348 9.7 14.5 0.00 0.00 0.00 39 1014.0
20260504160218 21 338 6.4 11.3 0.00 0.00 0.00 40 1014.0
20260504150719 20 343 11.3 17.7 0.00 0.00 0.00 47 1015.0
20260504150219 19 338 6.4 9.7 0.00 0.00 0.00 48 1015.0
20260504141220 17 300 8.0 16.1 0.00 0.00 0.00 54 1015.0
20260504140720 17 314 12.9 19.3 0.00 0.00 0.00 55 1015.0
20260504140221 17 328 9.7 14.5 0.00 0.00 0.00 56 1015.0
20260504130719 15 308 12.9 20.9 0.00 0.00 0.00 65 1016.0
20260504130221 15 318 14.5 22.5 0.00 0.00 0.00 65 1016.0
20260504120218 12 251 11.3 14.5 0.00 0.00 0.00 72 1016.0
20260504110718 10 248 8.0 11.3 0.00 0.00 0.00 79 1017.0
20260504110219 10 254 9.7 11.3 0.00 0.00 0.00 79 1017.0
20260504100221 10 244 4.8 8.0 0.00 0.00 0.00 80 1016.0
20260504081719 9 285 4.8 6.4 0.00 0.00 0.00 77 1017.0
20260504081219 9 263 4.8 8.0 0.00 0.00 0.00 77 1017.0
20260504080718 9 257 8.0 12.9 0.00 0.00 0.00 77 1017.0
20260504080219 8 260 6.4 12.9 0.00 0.00 0.00 76 1017.0
20260504070218 8 258 11.3 16.1 0.00 0.00 0.00 68 1017.0
20260504060218 7 284 6.4 8.0 0.00 0.00 0.00 67 1017.0
20260504050718 7 264 3.2 6.4 0.00 0.00 0.00 68 1017.0
20260504050219 7 263 3.2 6.4 0.00 0.00 0.00 69 1017.0
20260504045718 7 249 3.2 6.4 0.00 0.00 0.00 68 1017.0
20260504045218 7 312 4.8 8.0 0.00 0.00 0.00 67 1017.0
20260504044719 6 311 3.2 6.4 0.00 0.00 0.00 70 1017.0
20260504044218 6 217 3.2 6.4 0.00 0.00 0.00 70 1016.0
20260504043718 6 220 3.2 3.2 0.00 0.00 0.00 70 1017.0
20260504043218 6 216 0.0 3.2 0.00 0.00 0.00 69 1017.0
20260504042718 5 255 1.6 3.2 0.00 0.00 0.00 70 1017.0
20260504042219 5 0 0.0 0.0 0.00 0.00 0.00 71 1016.0